Flag for Jamaica Weather past 2 weeks in May Pen, Jamaica

Now
82 °F

Passing clouds.


Feels Like: 85 °F
Forecast: 71 / 88 °F
Wind: 5 mph from Southwest

Location: Kingston / Norman Manley

Current Time: Mar 3, 2015 at 11:55:56 AM

Latest Report: Mar 3, 2015 at 11:00 AM


Visibility: N/A

Pressure: 30.04 "Hg

Humidity: 62%

Dew point: 68 °F

Location of May PenLocation

Historic Weather in May Pen — Graph

°F

May Pen temperature yesterday

Maximum temperature yesterday: 82 °F (at 10:00 AM)
Minimum temperature yesterday: 79 °F (at 2:00 AM)
Average temperature yesterday: 80 °F

Past Weeks' High & Low Weather Summary

 TemperatureHumidityPressure
High90 °F (Feb 21, 2:00 PM)89% (Feb 19, 6:00 PM)30.09 "Hg (Feb 19, 6:00 PM)
Low73 °F (Feb 21, 4:00 AM)49% (Feb 21, 2:00 PM)29.89 "Hg (Feb 16, 4:00 PM)
Average81 °F71%29.98 "Hg
* Reported Feb 16 11:00 AM — Mar 3 11:00 AM, May Pen, Weather by CustomWeather, © 2015

Note: Actual official high and low records may vary slightly from our data, if they occured in-between our weather recording intervals... More about our weather records

Advertising

May Pen weather history for previous 24 hours

 ConditionsComfort  
Time TempWeatherWind HumidityBarometerVisibility
11:00 AM
Tue, Mar 3
82 °FPassing clouds.5 mph62%30.04 "HgN/A
10:00 AM79 °FPartly sunny.2 mph70%30.04 "HgN/A
9:00 AM79 °FPartly sunny.5 mph70%30.04 "HgN/A
8:00 AM79 °FScattered clouds.3 mph74%30.01 "HgN/A
7:00 AM75 °FPassing clouds.3 mph89%30.01 "HgN/A
6:00 AM75 °FPassing clouds.3 mph78%29.98 "HgN/A
5:00 AM75 °FPassing clouds.3 mph78%29.95 "HgN/A
4:00 AM75 °FPassing clouds.7 mph78%29.95 "HgN/A
3:00 AM75 °FPassing clouds.5 mph74%29.95 "HgN/A
2:00 AM77 °FPassing clouds.5 mph69%29.98 "HgN/A
1:00 AM75 °FPassing clouds.6 mph89%29.98 "HgN/A
12:00 AM79 °FPassing clouds.8 mph74%30.01 "HgN/A
11:00 PM
Mon, Mar 2
79 °FPassing clouds.7 mph74%30.04 "HgN/A
10:00 PM79 °FPassing clouds.7 mph74%30.04 "HgN/A
9:00 PM79 °FPassing clouds.7 mph74%30.01 "HgN/A
8:00 PM81 °FPassing clouds.10 mph74%30.01 "HgN/A
7:00 PM82 °FPassing clouds.3 mph70%29.98 "HgN/A
4:00 PM82 °FBroken clouds.14 mph70%29.98 "HgN/A
3:00 PM82 °FBroken clouds.14 mph70%29.98 "HgN/A
2:00 PM82 °FScattered clouds.14 mph70%30.01 "HgN/A
1:00 PM82 °FPartly sunny.16 mph70%30.04 "HgN/A
12:00 PM81 °FPartly sunny.21 mph74%30.07 "HgN/A
11:00 AM81 °FScattered showers. Broken clouds.20 mph74%30.09 "HgN/A
Weather by CustomWeather, © 2015

See weather overviewHow to use our weather pages